DW4771 Weather Reports


Display with metric or nautical units.
time (UTC)temp
F
wind
direction
speed
MPH
gust
MPH
rain 1hr
in
rain 24hr
in
rain mn
in
humidity
%
barometer
mb
20180119172823 31 265 0.0 2.0 0.00 0.01 0.00 87 998.9
20180119170422 31 90 0.0 4.0 0.00 0.02 0.00 86 998.6
20180119164822 31 240 0.0 2.0 0.00 0.02 0.00 86 998.7
20180119164022 32 0 0.0 0.0 0.00 0.02 0.00 86 998.6
20180119160822 32 181 1.0 3.0 0.00 0.02 0.00 84 998.3
20180119160022 32 170 1.0 3.0 0.00 0.02 0.00 84 998.3
20180119154422 33 221 2.0 4.0 0.00 0.02 0.00 83 998.1
20180119153624 34 181 1.0 5.0 0.00 0.02 0.00 83 998.2
20180119152822 34 0 0.0 0.0 0.00 0.02 0.00 83 998.0
20180119152022 35 265 0.0 4.0 0.00 0.02 0.00 82 998.0
20180119151222 35 270 0.0 4.0 0.00 0.02 0.00 83 998.0
20180119150422 36 298 0.0 3.0 0.00 0.02 0.00 83 998.0
20180119144822 36 0 0.0 0.0 0.00 0.02 0.00 83 998.0
20180119143222 36 57 3.0 5.0 0.00 0.02 0.00 83 997.8
20180119140822 37 123 1.0 6.0 0.00 0.02 0.00 82 997.7
20180119131222 37 46 3.0 6.0 0.00 0.02 0.00 82 997.1
20180119130422 37 50 3.0 7.0 0.00 0.02 0.00 82 997.2
20180119125622 37 62 3.0 7.0 0.00 0.02 0.00 82 997.0
20180119124822 38 60 3.0 8.0 0.00 0.02 0.00 82 996.8
20180119124022 37 52 3.0 8.0 0.00 0.02 0.00 82 996.8
20180119122422 37 35 3.0 8.0 0.00 0.02 0.00 82 996.7
20180119120822 37 41 3.0 6.0 0.00 0.02 0.00 81 996.3
20180119115222 38 50 3.0 8.0 0.00 0.02 0.00 80 996.3
20180119114422 38 58 3.0 7.0 0.00 0.02 0.00 79 996.2
20180119113622 38 58 3.0 7.0 0.00 0.02 0.00 79 996.4
20180119112822 38 66 1.0 5.0 0.00 0.02 0.00 79 996.3
20180119112022 38 95 1.0 4.0 0.00 0.02 0.00 79 996.2
20180119105622 38 60 5.0 9.0 0.00 0.02 0.00 77 996.2
20180119103222 39 63 4.0 11.0 0.00 0.02 0.00 71 995.9
20180119102422 39 48 5.0 10.0 0.00 0.02 0.00 69 995.8
20180119101622 40 50 5.0 11.0 0.00 0.02 0.00 67 995.8
20180119100822 40 41 3.0 8.0 0.00 0.02 0.00 65 995.8
20180119100022 40 98 2.0 5.0 0.00 0.02 0.00 66 995.7
20180119095222 40 100 3.0 6.0 0.00 0.02 0.00 64 995.6
20180119093622 40 268 1.0 4.0 0.00 0.02 0.00 62 995.3
20180119092822 40 230 1.0 5.0 0.00 0.02 0.00 62 995.1
20180119091223 39 248 3.0 5.0 0.00 0.02 0.00 70 995.0
20180119090422 37 251 4.0 5.0 0.00 0.02 0.00 73 994.9
20180119084822 37 236 5.0 8.0 0.00 0.02 0.00 73 994.5
20180119082422 36 192 3.0 5.0 0.00 0.02 0.00 73 994.1
20180119074422 36 203 5.0 8.0 0.00 0.02 0.00 68 993.6
20180119072822 36 248 0.0 4.0 0.00 0.02 0.00 65 992.8
20180119070422 36 272 2.0 8.0 0.00 0.02 0.00 65 992.8
20180119064822 36 270 3.0 8.0 0.00 0.02 0.00 65 992.6
20180119064022 37 266 4.0 8.0 0.00 0.02 0.00 65 992.3
20180119063222 37 265 3.0 8.0 0.00 0.02 0.00 66 992.1
20180119062422 37 263 2.0 7.0 0.00 0.02 0.00 66 992.1
20180119061622 37 253 3.0 8.0 0.00 0.02 0.00 65 991.9
20180119060822 38 250 3.0 8.0 0.00 0.02 0.00 64 992.1
20180119060022 38 253 2.0 8.0 0.00 0.02 0.00 63 992.2
20180119055222 38 269 3.0 8.0 0.00 0.02 0.00 62 992.3
20180119052822 38 265 6.0 12.0 0.00 0.02 0.00 61 992.0
20180119051222 38 267 5.0 11.0 0.00 0.02 0.00 62 991.5
20180119045621 38 271 4.0 11.0 0.00 0.02 0.00 62 991.5
20180119040821 38 267 2.0 6.0 0.00 0.02 0.00 61 990.5
20180119035222 38 240 4.0 11.0 0.00 0.02 0.00 61 990.3
20180119033622 38 266 4.0 10.0 0.00 0.02 0.00 61 989.8
20180119032821 39 259 3.0 9.0 0.00 0.02 0.00 61 989.6
20180119023221 39 264 4.0 13.0 0.00 0.02 0.00 62 989.2
20180119022421 38 261 3.0 8.0 0.00 0.02 0.00 63 989.2
20180119021621 39 262 4.0 10.0 0.00 0.02 0.00 62 989.1
20180119020821 39 268 3.0 8.0 0.00 0.02 0.00 61 989.0
20180119020022 40 283 6.0 17.0 0.00 0.02 0.00 60 988.9
20180119015221 40 280 7.0 17.0 0.00 0.02 0.00 58 988.7
20180119013621 40 282 8.0 16.0 0.00 0.02 0.00 57 988.7
20180119012021 40 277 9.0 20.0 0.00 0.02 0.00 57 988.3
20180119010422 40 270 11.0 21.0 0.00 0.02 0.00 56 988.3
20180119005621 40 279 9.0 18.0 0.00 0.02 0.00 57 988.3
20180119003221 41 278 11.0 25.0 0.00 0.02 0.00 56 988.1
20180119001621 41 287 12.0 25.0 0.00 0.02 0.00 55 988.0
20180119000821 41 307 10.0 21.0 0.00 0.02 0.00 55 987.8
20180119000021 41 277 10.0 19.0 0.00 0.02 0.00 56 987.8
20180118234421 41 284 12.0 24.0 0.00 0.02 0.00 54 987.7
20180118231221 42 253 13.0 27.0 0.00 0.02 0.00 54 987.0
20180118230421 42 264 14.0 30.0 0.00 0.02 0.00 55 986.8
20180118225621 42 292 13.0 30.0 0.00 0.02 0.00 55 986.6
20180118224821 42 268 12.0 28.0 0.00 0.02 0.02 56 986.4
20180118223221 42 256 8.0 23.0 0.00 0.02 0.02 58 986.3
20180118221621 42 278 12.0 30.0 0.00 0.02 0.02 56 986.4
20180118220821 42 270 16.0 29.0 0.00 0.02 0.02 55 986.3
20180118220021 42 278 13.0 29.0 0.00 0.02 0.02 55 986.3
20180118215221 42 259 11.0 30.0 0.00 0.02 0.02 56 986.0
20180118213621 42 275 14.0 33.0 0.01 0.02 0.02 55 985.7
20180118212021 43 284 18.0 38.0 0.01 0.02 0.02 54 985.2
20180118211221 43 276 13.0 33.0 0.01 0.02 0.02 57 984.9
20180118210421 42 280 10.0 23.0 0.01 0.02 0.02 63 984.6
20180118204021 42 259 12.0 30.0 0.01 0.02 0.02 64 984.6
20180118202421 42 247 7.0 23.0 0.00 0.01 0.01 69 984.3
20180118201621 42 229 7.0 17.0 0.00 0.01 0.01 70 984.3
20180118200021 42 232 8.0 17.0 0.00 0.01 0.01 73 984.2
20180118193621 41 248 10.0 20.0 0.00 0.01 0.01 76 984.1
20180118192021 41 236 10.0 21.0 0.00 0.01 0.01 77 984.1
20180118191222 41 243 10.0 20.0 0.00 0.01 0.01 78 984.1
20180118185621 41 215 14.0 34.0 0.00 0.01 0.01 79 984.0
20180118184021 41 223 14.0 25.0 0.00 0.01 0.01 79 984.0
20180118183221 42 234 12.0 31.0 0.00 0.01 0.01 78 983.9
20180118180821 41 230 12.0 22.0 0.01 0.01 0.01 84 983.9
20180118175221 39 231 8.0 15.0 0.01 0.01 0.01 87 983.9